Location: ?
(35.3436°N, 139.3168°E)
Time: 21:30:41
(UTC+00:00)

Cosmos 1400 Rocket - Pass Details

Date: 29 October 2020
Orbit: 521 x 568 km, 81.2° (Epoch: 24 November)

Event Time Altitude Azimuth Distance (km) Brightness Sun altitude
Rises 19:07:22 0° 360° (N) 2,683 6.3 -23.9°
Reaches altitude 10° 19:09:38 10° 8° (N) 1,781 5.5 -23.5°
Maximum altitude 19:13:19 39° 78° (ENE) 801 4.1 -22.7°
Drops below altitude 10° 19:16:56 10° 148° (SSE) 1,753 5.8 -22.0°
Sets 19:19:10 0° 156° (SSE) 2,633 6.6 -21.5°
